AirNav   GEt a FREE Bose Revolve Bluetooth Speaker
 
 761 users online  

KWLW Willows-Glenn County Airport
Willows, California, USA

GOING TO WILLOWS?


FAA INFORMATION EFFECTIVE 06 DECEMBER 2018

Location

FAA Identifier: WLW
Lat/Long: 39-30-56.7212N / 122-13-02.1916W
39-30.945353N / 122-13.036527W
39.5157559 / -122.2172754
(estimated)
Elevation: 141.2 ft. / 43.0 m (surveyed)
Variation: 14E (2020)
From city: 1 mile W of WILLOWS, CA
Time zone: UTC -8 (UTC -7 during Daylight Saving Time)
Zip code: 95988

Airport Operations

Airport use: Open to the public
Activation date: 04/1940
Control tower: no
ARTCC: OAKLAND CENTER
FSS: RANCHO MURIETA FLIGHT SERVICE STATION
NOTAMs facility: RIU (NOTAM-D service available)
Attendance: 0730-1530
Wind indicator: lighted
Segmented circle: yes
Lights: ACTVT MIRL RY 16/34 & VASI RY 34 - CTAF.
Beacon: white-green (lighted land airport)
Operates sunset to sunrise.

Airport Communications

CTAF/UNICOM: 122.8
  • APCH/DEP SVC PRVDD BY OAKLAND ARTCC ON FREQS 132.2/350.3 (RED BLUFF RCAG).
  • MAXWELL RCO 110.0T 122.1R (RANCHO MURIETA RADIO)

Nearby radio navigation aids

VOR radial/distance  VOR name  Freq  Var
CICr210/23.7CHICO VOR/DME109.8016E
ILAr324/28.1WILLIAMS VORTAC114.4018E
RBLr161/35.0RED BLUFF VORTAC115.7018E
MYVr294/39.0MARYSVILLE VOR/DME110.8016E

Airport Services

Fuel available: 100LL
24HR CARD LOCK
Parking: tiedowns
Bottled oxygen: NONE
Bulk oxygen: NONE

Runway Information

Runway 16/34

Dimensions: 4125 x 100 ft. / 1257 x 30 m
Surface: asphalt, in good condition
Weight bearing capacity: 
Single wheel: 38.0
Double wheel: 53.0
Runway edge lights: medium intensity
RUNWAY 16  RUNWAY 34
Latitude: 39-31.297078N39-30.617973N
Longitude: 122-13.196330W122-13.168878W
Elevation: 141.2 ft.136.2 ft.
Gradient: 0.1%0.1%
Traffic pattern: rightleft
Runway heading: 164 magnetic, 178 true344 magnetic, 358 true
Markings: basic, in good conditionnonprecision, in good condition
Visual slope indicator: 4-box VASI on left (3.00 degrees glide path)
Runway end identifier lights: no
Touchdown point: yes, no lightsyes, no lights
Obstructions: 15 ft. road, 550 ft. from runway, 23:1 slope to clearnone

Runway 13/31

Dimensions: 3788 x 60 ft. / 1155 x 18 m
Surface: asphalt, in fair condition
Weight bearing capacity: 
Single wheel: 12.0
RUNWAY 13  RUNWAY 31
Latitude: 39-31.187660N39-30.676538N
Longitude: 122-13.108402W122-12.646507W
Elevation: 137.7 ft.131.3 ft.
Gradient: 0.2%0.2%
Traffic pattern: rightleft
Runway heading: 131 magnetic, 145 true311 magnetic, 325 true
Displaced threshold: no243 ft.
Markings: basic, in good conditionbasic, in good condition
Runway end identifier lights: nono
Touchdown point: yes, no lightsyes, no lights
Obstructions: 50 ft. trees, 1910 ft. from runway, 100 ft. right of centerline, 34:1 slope to clearnone

Helipad H1

Dimensions: 60 x 60 ft. / 18 x 18 m
Surface: concrete, in good condition
Latitude: 39-31.350833N
Longitude: 122-13.140333W
Elevation: 139.0 ft.
Traffic pattern: leftleft
Markings: basic, in good condition

Airport Ownership and Management from official FAA records

Ownership: Publicly-owned
Owner: COUNTY OF GLENN
525 W SYCAMORE ST., STE B1
WILLOWS, CA 95988
Phone 530-934-6400
Manager: MOHAMMAD QURESHI
PO BOX 1070
WILLOWS, CA 95988
Phone 530-934-6530
COUNTY PUBLIC WORKS DEPUTY DIRECTOR.

Airport Operational Statistics

Aircraft based on the field: 42
Single engine airplanes: 39
Jet airplanes: 1
Helicopters: 2
    
Aircraft operations: avg 81/day *
75% local general aviation
25% transient general aviation
* for 12-month period ending 31 December 2016

Additional Remarks

A58-H1 +8 FT BUSHES 25 FT NE OF HELIPAD.

Instrument Procedures

NOTE: All procedures below are presented as PDF files. If you need a reader for these files, you should download the free Adobe Reader.

NOT FOR NAVIGATION. Please procure official charts for flight.
FAA instrument procedures published for use from 6 December 2018 at 0901Z to 3 January 2019 at 0900Z.

 
IAPs - Instrument Approach Procedures
RNAV (GPS) RWY 34   download (183KB)
VOR RWY 34   download (161KB)
VOR RWY 34   download (161KB)
NOTE: Special Take-Off Minimums/Departure Procedures apply   download (227KB)

Other nearby airports with instrument procedures:

O37 - Haigh Field Airport (13 nm N)
O08 - Colusa County Airport (23 nm SE)
KCIC - Chico Municipal Airport (24 nm NE)
KOVE - Oroville Municipal Airport (28 nm E)
KRBL - Red Bluff Municipal Airport (38 nm N)
 
Loc | Ops | Rwys | IFR | FBO | Links
Com | Nav | Svcs | Stats | Notes


 
Area around KWLW (Willows-Glenn County Airport)
 
Road maps at: MapQuest Bing Google
 
Aerial photo
WARNING: Photo may not be current or correct
Aerial photo of KWLW (Willows-Glenn County Airport)
Photo Jassen Photography
Photo taken 06-Nov-2015
looking west.

Do you have a better or more recent aerial photo of Willows-Glenn County Airport that you would like to share? If so, please send us your photo.

 
Sectional chart

 
Airport distance calculator
Flying to Willows-Glenn County Airport? Find the distance to fly.

From to KWLW

Sunrise and sunset
Times for 14-Dec-2018
 Local
(UTC-8)
 Zulu
(UTC)
Morning civil twilight06:5214:52
Sunrise07:2315:23
Sunset16:4500:45
Evening civil twilight17:1501:15

Current date and time
Zulu (UTC)  15-Dec-2018 02:18:10
Local (UTC-8)  14-Dec-2018 18:18:10
 
METAR
KCIC 
24nm NE 
150152Z 13013KT 1SM RABR BKN006 BKN034 OVC060 11/11 A3009
KOVE 
28nm E 
150153Z AUTO 12008KT 3SM BR FEW016 BKN038 OVC050 12/11 A3012 RMK AO2 RAE35 SLP201 P0001 T01170111
KO54 
35nm N 
150155Z AUTO 33003KT 5SM FEW018 SCT045 BKN050 03/02 A3005 RMK AO1
KRBL 
38nm N 
150154Z AUTO 18012G22KT 8SM OVC008 12/09 A3008 RMK AO2 SLP185 T01170094
KMYV 
39nm SE 
150153Z AUTO 16006KT 5SM -RA BR BKN055 OVC095 12/11 A3011 RMK AO2 RAE0058B18 SLP200 P0000 T01170106
KBAB 
43nm SE 
150158Z AUTO 00000KT 3SM -RA BR OVC024 12/10 A3010 RMK AO2 SLP196 P0000 T01180102 $
TAF
KRBL 
38nm N 
141739Z 1418/1518 VRB04KT P6SM OVC100 FM142100 16015G25KT 6SM -RA OVC030 FM150100 17011KT 5SM -RA OVC015 FM150600 VRB05KT 6SM -SHRA BR BKN025 OVC040
KBAB 
43nm SE 
142024Z 1420/1601 15009KT 9999 FEW030 SCT100 BKN200 QNH3005INS BECMG 1420/1421 16012KT 9999 VCSH SCT030 BKN080 QNH3006INS BECMG 1423/1424 14010G15KT 9000 -SHRA BKN020 QNH3007INS BECMG 1508/1509 13009KT 9000 BR BKN040 QNH3012INS BECMG 1517/1518 15009KT 9999 NSW BKN050 QNH3010INS TX15/1421Z TN10/1515Z LAST NO AMDS AFT 1420 NEXT 1511
NOTAMs
Click for the latest NOTAMs
NOTAMs are issued by the DoD/FAA and will open in a separate window not controlled by AirNav.

 

 
 

FBO, Fuel Providers, and Aircraft Ground Support

  
 Business Name 
 
 Contact 
 
 Services / Description 
 
Fuel Prices
 
Comments
  
Glenn County Airport 530-934-6530
no information available

If you are affiliated with Glenn County Airport and would like to show here your services, contact info, web link, logo, and more, click here
100LL
SS $4.66 
 Updated 06-Dec-2018
 
   5 read write
SS=Self service
Update Fuel Prices
 

Where to Eat: Catering, Restaurants, Food shops

  
 Business Name 
 
 Contact 
 
 Services / Description 
 
Distance
 
Comments
  
Nancy's Airport Cafe 530-934-7211
no information available

If you are affiliated with Nancy's Airport Cafe and would like to show here your services, contact info, web link, logo, and more, click here
on airport  
   4 read write
 

Would you like to see your business listed on this page?

 If your business provides an interesting product or service to pilots, flight crews, aircraft, or users of the Willows-Glenn County Airport, you should consider listing it here.  To start the listing process, click on the button below
 
Add a business
 

Other Pages about Willows-Glenn County Airport

County of Glenn Airports
 
Update a link
 
Copyright © AirNav, LLC. All rights reserved. Privacy Policy  Contact